YO8SDE-8 Weather Reports


time (UTC)temp
F
wind
direction
speed
knots
gust
knots
rain 1hr
in
rain 24hr
in
rain mn
in
humidity
%
barometer
mb
20260503200602 52 45 0.0 4.3 0.00 0.00 0.00 57 1006.1
20260503195602 52 67 0.0 0.0 0.00 0.00 0.00 56 1006.0
20260503195102 52 67 0.0 0.0 0.00 0.00 0.00 56 1006.0
20260503194602 52 67 0.0 0.0 0.00 0.00 0.00 56 1006.0
20260503194102 52 112 0.0 0.0 0.00 0.00 0.00 56 1006.0
20260503193602 52 247 0.0 0.0 0.00 0.00 0.00 55 1006.0
20260503193102 52 247 0.0 0.0 0.00 0.00 0.00 54 1006.2
20260503192602 52 247 0.0 0.0 0.00 0.00 0.00 54 1006.0
20260503192102 52 247 0.0 0.0 0.00 0.00 0.00 55 1006.0
20260503191602 53 247 0.0 3.5 0.00 0.00 0.00 56 1006.1
20260503191102 53 45 0.0 0.0 0.00 0.00 0.00 55 1006.1
20260503190602 53 202 0.0 0.0 0.00 0.00 0.00 52 1006.3
20260503185602 52 135 0.0 0.0 0.00 0.00 0.00 52 1006.2
20260503185102 53 135 0.0 0.0 0.00 0.00 0.00 52 1006.1
20260503184602 53 135 0.0 0.0 0.00 0.00 0.00 52 1006.2
20260503184102 53 135 0.0 0.0 0.00 0.00 0.00 50 1006.2
20260503183602 53 135 0.0 0.0 0.00 0.00 0.00 50 1006.3
20260503183102 53 135 0.0 0.0 0.00 0.00 0.00 50 1006.1
20260503182602 53 135 0.0 0.0 0.00 0.00 0.00 50 1006.1
20260503182102 53 135 0.0 0.0 0.00 0.00 0.00 50 1006.1
20260503181602 53 135 0.0 0.0 0.00 0.00 0.00 50 1006.3
20260503181102 53 135 0.0 0.0 0.00 0.00 0.00 49 1006.2
20260503180602 54 135 0.0 0.0 0.00 0.00 0.00 48 1006.3
20260503175602 54 135 0.0 0.0 0.00 0.00 0.00 47 1006.3
20260503175102 55 135 0.0 0.0 0.00 0.00 0.00 46 1006.2
20260503174602 55 135 0.0 0.0 0.00 0.00 0.00 45 1006.1
20260503174102 56 135 0.0 0.0 0.00 0.00 0.00 45 1006.1
20260503173602 56 135 0.0 0.0 0.00 0.00 0.00 43 1006.0
20260503173102 57 135 0.0 0.0 0.00 0.00 0.00 43 1006.0
20260503172602 58 135 0.0 0.0 0.00 0.00 0.00 41 1006.0
20260503172102 59 135 0.0 0.0 0.00 0.00 0.00 40 1006.1
20260503171602 60 135 0.0 0.0 0.00 0.00 0.00 39 1006.2
20260503171102 60 135 0.0 0.0 0.00 0.00 0.00 39 1006.3
20260503170602 61 135 0.0 0.0 0.00 0.00 0.00 39 1006.3
20260503150602 76 157 1.7 5.2 0.00 0.00 0.00 25 1007.4
20260503131102 80 67 1.7 4.3 0.00 0.00 0.00 26 1008.4
20260503130602 76 112 0.0 1.7 0.00 0.00 0.00 28 1008.6
20260503110602 69 112 1.7 4.3 0.00 0.00 0.00 29 1009.8
20260503081603 69 225 0.0 2.6 0.00 0.00 0.00 31 1011.8
20260503081103 69 270 0.0 7.0 0.00 0.00 0.00 29 1011.8
20260503080603 70 202 0.0 3.5 0.00 0.00 0.00 33 1011.7
20260503072603 65 225 3.5 4.3 0.00 0.00 0.00 38 1012.0
20260503072103 65 225 3.5 4.3 0.00 0.00 0.00 43 1011.9
20260503071603 64 135 0.9 3.5 0.00 0.00 0.00 44 1011.9
20260503071103 64 135 1.7 2.6 0.00 0.00 0.00 44 1011.9
20260503070603 64 157 0.0 0.0 0.00 0.00 0.00 46 1011.9
20260503060103 53 157 0.0 2.6 0.00 0.00 0.00 64 1011.9
20260503055103 52 202 0.0 3.5 0.00 0.00 0.00 66 1011.9
20260503054603 51 202 0.0 2.6 0.00 0.00 0.00 67 1011.9
20260503054103 51 202 0.0 4.3 0.00 0.00 0.00 69 1011.9
20260503053603 46 225 3.5 3.5 0.00 0.00 0.00 68 1011.9
20260503053103 44 112 0.0 0.0 0.00 0.00 0.00 69 1011.9
20260503052603 44 112 0.0 0.0 0.00 0.00 0.00 71 1012.0
20260503052103 45 112 0.0 0.0 0.00 0.00 0.00 74 1012.0
20260503051603 45 112 0.0 0.0 0.00 0.00 0.00 76 1011.8
20260503051103 45 112 0.0 0.0 0.00 0.00 0.00 78 1011.8
20260503050603 45 112 0.0 0.0 0.00 0.00 0.00 79 1012.0
20260503045603 45 112 0.0 0.0 0.00 0.00 0.00 81 1011.9
20260503045103 45 112 0.0 0.0 0.00 0.00 0.00 82 1012.0
20260503044603 44 112 0.0 0.0 0.00 0.00 0.00 84 1011.9
20260503044103 44 112 0.0 0.0 0.00 0.00 0.00 85 1011.9
20260503043603 43 112 0.0 0.0 0.00 0.00 0.00 86 1012.0
20260503043103 42 112 0.0 0.0 0.00 0.00 0.00 87 1011.9
20260503042603 42 112 0.0 0.0 0.00 0.00 0.00 87 1011.9
20260503042103 41 112 0.0 0.0 0.00 0.00 0.00 88 1012.0
20260503041603 39 112 0.0 0.0 0.00 0.00 0.00 88 1011.8
20260503041103 38 112 0.0 0.0 0.00 0.00 0.00 87 1011.7
20260503040603 37 112 0.0 0.0 0.00 0.00 0.00 87 1011.8
20260503040103 37 112 0.0 0.0 0.00 0.00 0.00 87 1011.8
20260503035603 37 112 0.0 0.0 0.00 0.00 0.00 87 1011.7
20260503035103 37 112 0.0 0.0 0.00 0.00 0.00 88 1011.7
20260503034603 36 112 0.0 0.0 0.00 0.00 0.00 88 1011.7
20260503034103 36 112 0.0 0.0 0.00 0.00 0.00 88 1011.8
20260503033603 35 112 0.0 0.0 0.00 0.00 0.00 88 1011.6
20260503033103 34 112 0.0 0.0 0.00 0.00 0.00 87 1011.6
20260503032603 33 112 0.0 0.0 0.00 0.00 0.00 87 1011.5
20260503032103 33 112 0.0 0.0 0.00 0.00 0.00 86 1011.5
20260503031603 33 112 0.0 0.0 0.00 0.00 0.00 87 1011.4
20260503031103 33 112 0.0 0.0 0.00 0.00 0.00 87 1011.5
20260503030603 33 112 0.0 0.0 0.00 0.00 0.00 86 1011.6
20260503025603 32 112 0.0 0.0 0.00 0.00 0.00 86 1011.5
20260503025103 32 112 0.0 0.0 0.00 0.00 0.00 86 1011.4
20260503024603 33 112 0.0 0.0 0.00 0.00 0.00 86 1011.4
20260503024103 33 112 0.0 0.0 0.00 0.00 0.00 86 1011.3
20260503023603 33 112 0.0 0.0 0.00 0.00 0.00 86 1011.5
20260503023103 32 112 0.0 0.0 0.00 0.00 0.00 86 1011.5
20260503022603 32 112 0.0 0.0 0.00 0.00 0.00 86 1011.6
20260503022103 32 112 0.0 0.0 0.00 0.00 0.00 85 1011.6
20260503021603 32 112 0.0 0.0 0.00 0.00 0.00 84 1011.5
20260503021103 32 112 0.0 0.0 0.00 0.00 0.00 84 1011.5
20260503020603 32 112 0.0 0.0 0.00 0.00 0.00 84 1011.5
20260503015603 32 112 0.0 0.0 0.00 0.00 0.00 84 1011.4
20260503015103 32 112 0.0 0.0 0.00 0.00 0.00 84 1011.5
20260503014603 32 112 0.0 0.0 0.00 0.00 0.00 84 1011.4
20260503014103 32 112 0.0 0.0 0.00 0.00 0.00 84 1011.5
20260503013603 32 112 0.0 0.0 0.00 0.00 0.00 84 1011.5
20260503013103 32 112 0.0 0.0 0.00 0.00 0.00 83 1011.5
20260503012603 32 112 0.0 0.0 0.00 0.00 0.00 83 1011.4
20260503012103 32 112 0.0 0.0 0.00 0.00 0.00 83 1011.4
20260503011603 32 112 0.0 0.0 0.00 0.00 0.00 83 1011.4
20260503011103 32 112 0.0 0.0 0.00 0.00 0.00 83 1011.4
20260503010603 32 112 0.0 0.0 0.00 0.00 0.00 83 1011.5
20260503010103 32 112 0.0 0.0 0.00 0.00 0.00 83 1011.4
20260503005603 32 112 0.0 0.0 0.00 0.00 0.00 82 1011.4
20260503005103 33 112 0.0 0.0 0.00 0.00 0.00 83 1011.4
20260503004603 33 112 0.0 0.0 0.00 0.00 0.00 83 1011.4
20260503004103 33 112 0.0 0.0 0.00 0.00 0.00 83 1011.2
20260503003603 33 112 0.0 0.0 0.00 0.00 0.00 83 1011.3
20260503003103 33 112 0.0 0.0 0.00 0.00 0.00 83 1011.5
20260503002603 33 112 0.0 0.0 0.00 0.00 0.00 82 1011.5
20260503002103 33 112 0.0 0.0 0.00 0.00 0.00 82 1011.5
20260503001603 33 112 0.0 0.0 0.00 0.00 0.00 82 1011.5
20260503001103 33 112 0.0 0.0 0.00 0.00 0.00 82 1011.5
20260503000603 32 112 0.0 0.0 0.00 0.00 0.00 81 1011.5
20260503000103 31 112 0.0 0.0 0.00 0.00 0.00 79 1011.6
20260502235603 30 112 0.0 0.0 0.00 0.00 0.00 78 1011.7
20260502235103 30 112 0.0 0.0 0.00 0.00 0.00 78 1011.7
20260502234603 30 112 0.0 0.0 0.00 0.00 0.00 78 1011.6
20260502234103 30 112 0.0 0.0 0.00 0.00 0.00 77 1011.6
20260502233603 30 112 0.0 0.0 0.00 0.00 0.00 77 1011.5
20260502233103 30 112 0.0 0.0 0.00 0.00 0.00 77 1011.6
20260502232603 30 112 0.0 0.0 0.00 0.00 0.00 76 1011.6
20260502232103 30 112 0.0 0.0 0.00 0.00 0.00 77 1011.5
20260502231603 31 112 0.0 0.0 0.00 0.00 0.00 77 1011.6
20260502231103 31 112 0.0 0.0 0.00 0.00 0.00 77 1011.5
20260502230603 31 112 0.0 0.0 0.00 0.00 0.00 77 1011.9
20260502225603 31 112 0.0 0.0 0.00 0.00 0.00 75 1011.9
20260502225103 31 112 0.0 0.0 0.00 0.00 0.00 75 1011.9
20260502224603 31 112 0.0 0.0 0.00 0.00 0.00 75 1012.0
20260502224103 31 112 0.0 0.0 0.00 0.00 0.00 75 1012.0
20260502223603 32 112 0.0 0.0 0.00 0.00 0.00 74 1012.1
20260502223103 33 112 0.0 0.0 0.00 0.00 0.00 74 1012.2
20260502222603 33 112 0.0 0.0 0.00 0.00 0.00 74 1012.1
20260502222103 33 112 0.0 0.0 0.00 0.00 0.00 75 1012.1
20260502221603 34 112 0.0 0.0 0.00 0.00 0.00 75 1012.1
20260502221103 34 112 0.0 0.0 0.00 0.00 0.00 75 1012.1
20260502220603 34 112 0.0 0.0 0.00 0.00 0.00 75 1012.2
20260502220103 35 112 0.0 0.0 0.00 0.00 0.00 74 1012.1
20260502215603 35 112 0.0 0.0 0.00 0.00 0.00 74 1012.2
20260502215103 35 112 0.0 0.0 0.00 0.00 0.00 74 1012.2
20260502214603 35 112 0.0 0.0 0.00 0.00 0.00 75 1012.2
20260502214103 36 112 0.0 0.0 0.00 0.00 0.00 75 1012.2
20260502213603 36 112 0.0 0.0 0.00 0.00 0.00 75 1012.3
20260502213103 36 112 0.0 0.0 0.00 0.00 0.00 74 1012.3
20260502212603 36 112 0.0 0.0 0.00 0.00 0.00 74 1012.3
20260502212103 36 112 0.0 0.0 0.00 0.00 0.00 73 1012.3
20260502211603 36 112 0.0 0.0 0.00 0.00 0.00 72 1012.2
20260502211103 36 112 0.0 0.0 0.00 0.00 0.00 71 1012.1
20260502210603 36 112 0.0 0.0 0.00 0.00 0.00 70 1012.3
20260502205603 37 112 0.0 0.0 0.00 0.00 0.00 70 1012.3
20260502205103 37 112 0.0 0.0 0.00 0.00 0.00 70 1012.2
20260502204603 37 112 0.0 0.0 0.00 0.00 0.00 69 1012.2
20260502204103 38 112 0.0 0.0 0.00 0.00 0.00 69 1012.2
20260502203603 38 112 0.0 0.0 0.00 0.00 0.00 69 1012.2
20260502203103 38 112 0.0 0.0 0.00 0.00 0.00 69 1012.2
20260502202603 38 112 0.0 0.0 0.00 0.00 0.00 68 1012.2
20260502202103 38 112 0.0 0.0 0.00 0.00 0.00 67 1012.3
20260502201603 39 112 0.0 0.0 0.00 0.00 0.00 67 1012.4
20260502201103 39 112 0.0 0.0 0.00 0.00 0.00 67 1012.3